TimeCDT,TemperatureF,Dew PointF,Humidity,Sea Level PressureIn,VisibilityMPH,Wind Direction,Wind SpeedMPH,Gust SpeedMPH,PrecipitationIn,Events,Conditions,WindDirDegrees,DateUTC
12:05 AM,64.4,64.4,100,29.85,10.0,SW,4.6,-,N/A,,Clear,220,2013-06-09 05:05:00
12:25 AM,64.4,64.4,100,29.86,10.0,NW,4.6,-,N/A,,Clear,310,2013-06-09 05:25:00
12:45 AM,64.4,64.4,100,29.89,10.0,NNW,10.4,-,N/A,,Clear,340,2013-06-09 05:45:00
1:05 AM,64.4,64.4,100,29.89,9.0,NNW,4.6,-,N/A,,Clear,330,2013-06-09 06:05:00
1:25 AM,62.6,62.6,100,29.89,7.0,NW,4.6,-,N/A,,Clear,310,2013-06-09 06:25:00
1:45 AM,60.8,60.8,100,29.87,5.0,SW,5.8,-,N/A,,Clear,220,2013-06-09 06:45:00
2:05 AM,62.6,62.6,100,29.86,5.0,SSW,3.5,-,N/A,,Clear,200,2013-06-09 07:05:00
2:25 AM,62.6,62.6,100,29.88,5.0,NNE,5.8,-,N/A,,Clear,20,2013-06-09 07:25:00
2:45 AM,62.6,62.6,100,29.87,8.0,Calm,Calm,-,N/A,,Clear,0,2013-06-09 07:45:00
3:05 AM,59.0,59.0,100,29.87,0.5,NW,5.8,-,N/A,Fog,Fog,320,2013-06-09 08:05:00
3:25 AM,59.0,59.0,100,29.87,1.0,NNW,3.5,-,N/A,,Clear,330,2013-06-09 08:25:00
3:45 AM,59.0,59.0,100,29.88,0.5,NNW,6.9,-,N/A,Fog,Fog,330,2013-06-09 08:45:00
4:05 AM,59.0,59.0,100,29.89,2.5,North,5.8,-,N/A,,Scattered Clouds,350,2013-06-09 09:05:00
4:25 AM,59.0,59.0,100,29.90,2.0,NW,3.5,-,N/A,,Scattered Clouds,310,2013-06-09 09:25:00
4:45 AM,59.0,59.0,100,29.90,0.5,NW,5.8,-,N/A,Fog,Fog,320,2013-06-09 09:45:00
5:05 AM,59.0,59.0,100,29.90,3.0,WNW,5.8,-,N/A,,Clear,290,2013-06-09 10:05:00
5:25 AM,59.0,59.0,100,29.90,2.5,WNW,3.5,-,N/A,,Clear,290,2013-06-09 10:25:00
5:45 AM,57.2,57.2,100,29.91,0.5,WNW,4.6,-,N/A,Fog,Fog,290,2013-06-09 10:45:00
6:05 AM,55.4,55.4,100,29.92,1.5,West,4.6,-,N/A,,Clear,260,2013-06-09 11:05:00
6:25 AM,57.2,57.2,100,29.93,2.5,West,5.8,-,N/A,,Clear,270,2013-06-09 11:25:00
6:45 AM,57.2,57.2,100,29.94,3.0,WSW,6.9,-,N/A,,Clear,250,2013-06-09 11:45:00
7:05 AM,59.0,59.0,100,29.94,5.0,West,4.6,-,N/A,,Clear,280,2013-06-09 12:05:00
7:25 AM,62.6,62.6,100,29.94,7.0,NNW,8.1,-,N/A,,Clear,330,2013-06-09 12:25:00
7:45 AM,64.4,64.4,100,29.94,10.0,NNW,9.2,-,N/A,,Clear,340,2013-06-09 12:45:00
8:05 AM,66.2,64.4,94,29.94,10.0,North,9.2,-,N/A,,Clear,360,2013-06-09 13:05:00
8:25 AM,68.0,60.8,78,29.94,10.0,North,9.2,-,N/A,,Clear,10,2013-06-09 13:25:00
8:45 AM,69.8,59.0,68,29.94,10.0,NNE,10.4,-,N/A,,Clear,30,2013-06-09 13:45:00
9:05 AM,71.6,59.0,64,29.94,10.0,North,9.2,-,N/A,,Clear,10,2013-06-09 14:05:00
9:25 AM,73.4,57.2,57,29.95,10.0,North,5.8,-,N/A,,Clear,360,2013-06-09 14:25:00
9:45 AM,73.4,57.2,57,29.96,10.0,North,4.6,-,N/A,,Clear,10,2013-06-09 14:45:00
10:05 AM,73.4,57.2,57,29.96,10.0,Calm,Calm,-,N/A,,Clear,0,2013-06-09 15:05:00
10:25 AM,75.2,55.4,50,29.96,10.0,Calm,Calm,-,N/A,,Clear,0,2013-06-09 15:25:00
10:45 AM,77.0,53.6,44,29.96,10.0,ESE,3.5,-,N/A,,Clear,120,2013-06-09 15:45:00
11:05 AM,78.8,55.4,44,29.96,10.0,Calm,Calm,-,N/A,,Clear,0,2013-06-09 16:05:00
11:25 AM,78.8,55.4,44,29.95,10.0,Calm,Calm,-,N/A,,Clear,0,2013-06-09 16:25:00
11:45 AM,80.6,55.4,42,29.96,10.0,SE,5.8,-,N/A,,Clear,130,2013-06-09 16:45:00
12:05 PM,82.4,53.6,37,29.96,10.0,SSW,3.5,-,N/A,,Clear,210,2013-06-09 17:05:00
12:25 PM,82.4,53.6,37,29.96,10.0,WNW,4.6,-,N/A,,Clear,290,2013-06-09 17:25:00
12:45 PM,84.2,57.2,40,29.96,10.0,WNW,4.6,-,N/A,,Clear,300,2013-06-09 17:45:00
1:05 PM,82.4,53.6,37,29.95,10.0,SW,6.9,-,N/A,,Clear,230,2013-06-09 18:05:00
1:25 PM,84.2,55.4,37,29.95,10.0,West,8.1,16.1,N/A,,Clear,260,2013-06-09 18:25:00
1:45 PM,84.2,57.2,40,29.95,10.0,WSW,11.5,-,N/A,,Clear,250,2013-06-09 18:45:00
2:05 PM,84.2,53.6,35,29.94,10.0,Calm,Calm,-,N/A,,Clear,0,2013-06-09 19:05:00
2:25 PM,86.0,53.6,33,29.94,10.0,WSW,6.9,-,N/A,,Clear,250,2013-06-09 19:25:00
2:45 PM,86.0,53.6,33,29.93,10.0,West,11.5,16.1,N/A,,Clear,270,2013-06-09 19:45:00
3:05 PM,86.0,51.8,31,29.93,10.0,WNW,9.2,-,N/A,,Clear,300,2013-06-09 20:05:00
3:25 PM,86.0,53.6,33,29.92,10.0,West,6.9,-,N/A,,Clear,270,2013-06-09 20:25:00
3:45 PM,86.0,51.8,31,29.92,10.0,NW,3.5,-,N/A,,Clear,310,2013-06-09 20:45:00
4:05 PM,87.8,50.0,27,29.91,10.0,WSW,9.2,-,N/A,,Clear,240,2013-06-09 21:05:00
4:25 PM,87.8,50.0,27,29.91,10.0,NW,10.4,-,N/A,,Clear,320,2013-06-09 21:25:00
4:45 PM,87.8,50.0,27,29.89,10.0,WSW,5.8,-,N/A,,Clear,240,2013-06-09 21:45:00
5:05 PM,87.8,51.8,29,29.89,10.0,SW,8.1,-,N/A,,Clear,220,2013-06-09 22:05:00
5:25 PM,87.8,53.6,31,29.88,10.0,SW,6.9,-,N/A,,Clear,220,2013-06-09 22:25:00
5:45 PM,87.8,55.4,33,29.87,10.0,WSW,11.5,17.3,N/A,,Clear,240,2013-06-09 22:45:00
6:05 PM,87.8,55.4,33,29.87,10.0,WSW,11.5,-,N/A,,Clear,250,2013-06-09 23:05:00
6:25 PM,86.0,57.2,37,29.86,10.0,SW,11.5,-,N/A,,Clear,230,2013-06-09 23:25:00
6:45 PM,86.0,55.4,35,29.86,10.0,WSW,12.7,-,N/A,,Clear,240,2013-06-09 23:45:00
7:05 PM,84.2,55.4,37,29.86,10.0,WSW,10.4,-,N/A,,Clear,240,2013-06-10 00:05:00
7:25 PM,84.2,55.4,37,29.85,10.0,WSW,11.5,-,N/A,,Clear,240,2013-06-10 00:25:00
7:45 PM,82.4,57.2,42,29.85,10.0,SW,8.1,-,N/A,,Clear,220,2013-06-10 00:45:00
8:05 PM,78.8,57.2,47,29.85,10.0,SSW,8.1,-,N/A,,Clear,210,2013-06-10 01:05:00
8:25 PM,75.2,60.8,61,29.85,10.0,SSW,8.1,-,N/A,,Clear,200,2013-06-10 01:25:00
8:45 PM,73.4,60.8,65,29.84,10.0,SSW,6.9,-,N/A,,Clear,200,2013-06-10 01:45:00
9:05 PM,73.4,60.8,65,29.85,10.0,SSW,8.1,-,N/A,,Clear,200,2013-06-10 02:05:00
9:25 PM,71.6,62.6,73,29.85,10.0,South,8.1,-,N/A,,Clear,190,2013-06-10 02:25:00
9:45 PM,73.4,59.0,61,29.85,10.0,South,5.8,-,N/A,,Clear,170,2013-06-10 02:45:00
10:05 PM,71.6,60.8,69,29.86,10.0,South,8.1,-,N/A,,Clear,180,2013-06-10 03:05:00
10:25 PM,71.6,60.8,69,29.87,10.0,South,9.2,-,N/A,,Clear,190,2013-06-10 03:25:00
10:45 PM,68.0,62.6,83,29.87,10.0,SSW,6.9,-,N/A,,Clear,210,2013-06-10 03:45:00
11:05 PM,68.0,62.6,83,29.88,10.0,SSW,5.8,-,N/A,,Clear,210,2013-06-10 04:05:00
11:25 PM,68.0,60.8,78,29.87,10.0,SSW,6.9,-,N/A,,Clear,200,2013-06-10 04:25:00
11:45 PM,66.2,60.8,83,29.87,10.0,SSW,6.9,-,N/A,,Partly Cloudy,200,2013-06-10 04:45:00